User: anonymous   Login
Location: Unspecified
(0.0000°N, 0.0000°E)
Time: 00:06:49
(UTC+00:00)
Language:

STARLINK-32955 - Orbit

View from above orbital plane
View from above orbital plane
View from above satellite
View from above satellite

Ground track
Ground track

The orbit is defined by the following mean orbital elements,

1 63117U          26145.58335647 +.00000000 +00000-0 +19377-2 0 00009
2 63117  42.9925 284.6421 0024005 335.7056 119.4642 15.55682252    06
Epoch (UTC): 25 May 2026 14:00:01
Eccentricity: 0.0024005
inclination: 42.9925°
perigee height: 384 km
apogee height: 416 km
right ascension of ascending node: 284.6421°
argument of perigee: 335.7056°
revolutions per day: 15.55682252
mean anomaly at epoch: 119.4642°

The dashed part of the orbit path shows where the satellite is in the earth's shadow,  

DLR